Regional Weather Roundup
Issued by NWS Northern Indiana

Home | Current Version | Previous Version | Graphics & Text | Print | Product List | Glossary On
Versions: 1 2 3 4 5 6 7 8 9 10 11 12 13 14 15 16 17 18 19 20 21 22 23 24 25 26 27 28 29 30 31 32 33 34 35 36 37 38 39 40 41 42 43 44 45 46 47 48 49 50
000
ASUS43 KIWX 181500
RWRIWX

KIWX WEATHER ROUNDUP
NATIONAL WEATHER SERVICE NORTHERN INDIANA
1100 AM EDT THU SEP 18 2014

NOTE: "FAIR" INDICATES FEW OR NO CLOUDS BELOW 12,000 FEET WITH NO
SIGNIFICANT WEATHER AND/OR OBSTRUCTIONS TO VISIBILITY.

* THESE STATIONS ARE NOT UNDER NWS QUALITY CONTROL. THEY ALSO MAY NOT
  REPORT WEATHER SUCH AS PRECIPITATION OR FOG.

INZ001>027-181600-
NORTHERN INDIANA

CITY           SKY/WX    TMP DP  RH WIND       PRES   REMARKS
GARY*          MOSUNNY   64  52  63 VRB5      30.16R
VALPARAISO     SUNNY     61  50  67 CALM      30.16S
KNOX*          SUNNY     60  49  65 E3        30.15S
SOUTH BEND     SUNNY     62  48  60 VRB3      30.16S
ELKHART*       SUNNY     61  48  63 E6        30.16R
GOSHEN         SUNNY     62  50  64 E7        30.16R
WARSAW*        SUNNY     61  50  67 NE3       30.16R
ANGOLA*        SUNNY     63  48  59 CALM      30.14R
FORT WAYNE     SUNNY     61  50  67 NE7       30.16R
PERU/GRISSOM   SUNNY     58  54  87 NE7       30.14R

$$
INZ028>050-181600-
CENTRAL INDIANA

CITY           SKY/WX    TMP DP  RH WIND       PRES   REMARKS
LAFAYETTE      SUNNY     60  49  66 NE12      30.12F
KOKOMO*        SUNNY     61  52  72 NE3       30.14S
MUNCIE*        SUNNY     63  52  67 E6        30.13R
INDIANAPOLIS   MOSUNNY   63  49  60 NE8       30.10S

$$
MIZ043>046-050>051-056>058-064>065-071>073-077>080-181600-
SOUTHWEST LOWER MICHIGAN

CITY           SKY/WX    TMP DP  RH WIND       PRES   REMARKS
BATTLE CREEK   SUNNY     60  51  72 E6        30.16R
BENTON HARBOR  SUNNY     61  49  64 S7        30.15R
COLDWATER*     SUNNY     63  52  68 NE3       30.14R
HILLSDALE*     SUNNY     62  50  66 CALM      30.14R
HOLLAND        PTSUNNY   61  51  70 E6        30.17R
GRAND RAPIDS   PTSUNNY   55  54  96 E6        30.17R
KALAMAZOO      SUNNY     62  50  64 VRB5      30.16R
STURGIS*       SUNNY     61  52  72 CALM      30.14R
THREE RIVERS*  FAIR      61  52  71 E3        30.16R

$$
OHZ001>008-015>018-024>025-181600-
NORTHWEST OHIO

CITY           SKY/WX    TMP DP  RH WIND       PRES   REMARKS
DEFIANCE       SUNNY     62  50  64 VRB5      30.14R
FINDLAY        SUNNY     66  51  58 NE6       30.12R
TOLEDO EXPRESS SUNNY     62  51  67 CALM      30.13R
TOLEDO METCALF SUNNY     64  54  69 VRB5      30.14R
LIMA           SUNNY     64  51  62 NE6       30.13R

$$
&&


USA.gov is the U.S. government's official web portal to all federal, state and local government web resources and services.